Timeline UpdatesTrip UpdatesNews PostsPvt PostsTravel TipsAdmin PostsConv PostsFollowed PostsChat RequestsBlog PostsPNR Posts

Disclaimer
Search
 
 
Sun Aug 31, 2014 01:43:51 ISTHomeTrainsΣChainsAtlasPNRForumGalleryNewsFAQTripsMembersLoginFeedback
No Recent News for this Train
Other Trains in the News **new
Latest...
⇐ Return Journey: Train# 55902

55901/Lumding Tinsukia Passenger (UnReserved)

Aug 23 2013 (12:33PM)
Change Departure Station:
Change Arrival Station:
Post a Train Travel TipPost a Train Travel Tip **new
Post a Comment/Question/Picture/VideoPost a Comment/Question/Picture/Video
Pantry/Catering
✕ NO Pantry Car
✕ NO Catering
RSA - Rake Sharing
Rake/Coach Composition
Loco
News    PNR    Forum    Time-Table    Availability    Fare Chart    Map    Arr/Dep History    Trips    Gallery    ΣChains    X/O    Timeline    
Travel Time: 9h 15m    31 halts    Distance: 214 km    Avg Speed: 23 km/hr
Type: Passenger
Zone: NFR/Northeast Frontier
Departs @ 10:45 (Avg 27m late)
Platform# 1
SMTWTFS
Bhilgaon/BHGN 
Arrives @ 20:00 (Avg 9m late)
Platform# 4
SMTWTFS
Tinsukia Junction/TSK 

31 halts. 32 intermediate Stations between Bhilgaon and Tinsukia Junction

Show ALL intermediate Stations  Show Old Time-Table

#CodeStation NameX/OArrivesAvgDepartsAvgHaltPFDay#KmSpeedElevZoneAddress
1LMGLumding Junction (5)  -06:30+041-123.140142mNFRLumding, Assam
2BRLFBar LangferX  06:40+606:42+172m--1-116.330154mNFRDist: Karbi Anglong, Assam
3LCTLangcholietX  06:55+1406:57+202m--1-109.830165mNFRTV Centre Road, Assam
4NLNNailalungX  07:16+1607:18+192m--1-100.225222mNFRTV Centre Road, Assam
5DPUDiphu (2)X  07:40+1307:45+165m--1-90.940180mNFRDiphu, Assam
6DLDEDaldali  08:00+1508:02+162m--1-80.847194mNFRDiphu, Assam
7DSRDhansiri  08:13+1608:15+172m--1-72.263179mNFRDhansiri, Assam
8RXRRangapahar  08:24+1708:26+182m--1-62.735159mNFRRangapahar, Nagaland
9RXRXRangapahar Crossing  08:34-08:36-2m--1-58.029152mNFRArmy Supply Road, Nagaland
10DMVDimapur (3)  08:45+1408:55+1510m--1-53.735153mNFRDimapur, Nagaland
11KHKTKhotkhoti  09:05+2009:07+202m--1-47.850145mNFRKhotkhoti Railway Station, Assam
12BXJBokajan (2)  09:17+2109:22+235m--1-39.420138mNFRBokajan, Assam
13CJAChongajanO  09:40+1509:42+182m--1-33.451133mNFRNaojan Crossing Gate Road, Assam
14NJNNaojan (1)O  09:51+2009:53+222m11-25.842128mNFRNo.1 Kori Gaon, Assam
15SZRSarupathar (2)  10:05+2210:10+255m--1-17.438123mNFRSarupathar Road Thana Rd, Assam
16BXPBarpatharX  10:25+2410:30+295m--1-7.836115mNFRRailway Station, Assam
17BHGN»Bhilgaon (1)»  10:43+2610:45+272m110.041113mNFRAsian Highway 1, Assam
18JMIJamguriX  10:55+2610:57+302m--16.814104mNFROating Grant, Assam
19OTNOating  11:20-11:22-2m--112.314112mNFRTirual Gaon, Assam
20FKGFurkating Junction (2)  11:40+611:45+185m--116.545 NFRK B Rd, Assam
21KXLKamarbandha AliXO  11:57+2611:59+372m--125.51099mNFRK B Rd, Assam
22CFGChakiting  12:32-12:34-2m--130.86297mNFRChakiting, Assam
23TTBTitabar (1)X  12:45+1712:47+202m1142.13598mNFRTitabor, Assam
24KQYKharikatiaX  12:58-13:00-2m--148.645107mNFRDhodar Ali, Assam
25MXNMariani Junction (4)XO  13:08+2513:18+5410m1154.615117mNFRDist. Jorhat Pin-785634, Assam
26NCHNakachari (2)  14:01+2614:03+262m--165.152115mNFRNakachari, Assam
27LHLahing  14:11-14:13-2m--172.040109mNFRLahing, Assam
28SLXSelenghat  14:21+2614:23+262m--177.340104mNFRSelenghat, Assam
29AGIAmguri Junction (2)  14:31+2114:36+225m1182.663104mNFRAmguri, Assam
30NMTNamtiali  14:47+3514:49+352m--194.14398mNFRDhodor Ali, Assam
31MZAMezenga  14:58-15:00-2m--1100.73799mNFRReboti Gaon, Assam
32NZRNazira  15:07-15:09-2m--1104.92196mNFRNazira, Assam
33SLGRSimaluguri Junction (3)  15:20+2215:25+235m11108.74399mNFRSimaluguri, Assam
34MUGNMahutgaon  15:34-15:36-2m--1115.24299mNFRLakwa Rajgarh Road, Assam
35LXALakswa  15:46+4515:48+452m--1122.25298mNFRKukurachowa Gaon Rd, Assam
36SFRSafrai  16:00+4516:02+452m--1132.555101mNFRBarpothar, Assam
37BOJBhojo  16:13+4716:18+465m--1142.626107mNFRBhojo Railway Station, Assam
38LPTALongpatiaX  16:33-16:35-2m--1149.234109mNFRLongpatia, Assam
39SPKSapekhati  16:48+3516:53+545m--1156.513112mNFRMoran to Naharkatiya Rd, Assam
40BRNRBaruanagarO  17:30-17:32-2m--1164.425115mNFRDeopani Habi, Assam
41BFDBorhat  17:44+2117:49+205m--1169.421118mNFRNahar Rd, Assam
42NAMNamrup (2)X  18:04+1518:09+125m11174.739123mNFRBorhat, Assam
43BTZBalimara  18:17-18:19-2m--1179.843122mNFRBalimara, Assam
44NHKNaharkatiya  18:27+1018:32+145m--1185.656121mNFRNaharkatiya, Assam
45DJGDuliajan  18:42+1518:47+155m--1194.933123mNFRDuliajan, Assam
46BDTBordubi Road  18:54-18:56-2m--1198.719123mNFRMadhubon to Naoholia Rd, Assam
47CGFCharali  19:04+1219:06+122m--1201.225125mNFRMadhubon to Naoholia Rd, Assam
48NTSKNew Tinsukia Junction (3)  19:30+5019:50+4920m--1211.214124mNFRDist: Tinsukia, Assam
49TSK•Tinsukia Junction (3)•  20:00+9-41213.5-124mNFRTinsukia, Assam
Scroll to Top
Scroll to Bottom